Location: Czekanka
(50.4925°N, 19.2643°E)
Time: 02:37:14
(UTC+00:00)

CZ-2C R/B - Pass Details

Date: 18 September 2024
Orbit: 703 x 903 km, 98.2° (Epoch: 09 October)

Event Time Altitude Azimuth Distance (km) Brightness Sun altitude
Rises 01:13:03 0° 11° (N) 3,521 7.2 -28.1°
Reaches altitude 10° 01:15:30 10° 8° (N) 2,587 6.3 -27.8°
Enters shadow 01:21:04 58° 296° (WNW) 1,045 3.4 -27.2°
